QPF
0.00 0.00 0.00 0.00 0.00 0.00 0.00 0.00 0.00 0.00 0.00 0.00 0.00 0.00 0.00 0.02 0.12 0.08 0.02 0.03 0.02 0.00 0.00 0.00 0.00 0.00 0.00 0.00 0.00 0.00 0.00 0.00 0.00
0.00 0.00 0.00 0.00 0.00 0.00 0.00 0.00 0.00 0.00 0.00 0.00 0.00 0.00 0.00 0.00 0.03 0.01 0.02 0.06 0.09 0.04 0.01 0.00 0.01 0.01 0.02 0.01 0.00 0.00 0.00 0.00 0.00
0.00 0.00 0.00 0.00 0.00 0.00 0.00 0.00 0.00 0.00 0.00 0.00 0.00 0.00 0.00 0.00 0.00 0.00 0.06 0.10 0.07 0.05 0.12 0.07 0.06 0.05 0.04 0.02 0.00 0.00 0.00 0.00 0.00
0.00 0.00 0.00 0.00 0.00 0.00 0.00 0.00 0.00 0.00 0.00 0.00 0.00 0.00 0.00 0.00 0.00 0.00 0.02 0.04 0.03 0.06 0.12 0.11 0.09 0.07 0.05 0.05 0.04 0.03 0.04 0.01 0.00
0.00 0.00 0.00 0.00 0.00 0.00 0.00 0.00 0.00 0.00 0.00 0.00 0.00 0.00 0.00 0.00 0.00 0.00 0.00 0.00 0.00 0.00 0.09 0.08 0.10 0.14 0.11 0.05 0.08 0.04 0.04 0.01 0.00
0.00 0.00 0.00 0.00 0.00 0.00 0.00 0.00 0.00 0.00 0.00 0.00 0.00 0.00 0.00 0.00 0.00 0.00 0.00 0.00 0.00 0.00 0.00 0.01 0.03 0.05 0.07 0.13 0.10 0.07 0.06 0.03 0.01
0.00 0.00 0.00 0.00 0.00 0.00 0.00 0.00 0.00 0.00 0.00 0.00 0.00 0.00 0.00 0.00 0.00 0.00 0.00 0.00 0.00 0.00 0.00 0.00 0.01 0.00 0.00 0.03 0.02 0.04 0.04 0.03 0.02
0.00 0.00 0.00 0.04 0.03 0.00 0.00 0.00 0.00 0.00 0.00 0.00 0.00 0.00 0.00 0.00 0.00 0.00 0.00 0.00 0.00 0.00 0.00 0.00 0.02 0.02 0.00 0.00 0.00 0.00 0.00 0.06 0.08
0.01 0.00 0.00 0.01 0.04 0.04 0.02 0.02 0.03 0.02 0.00 0.00 0.00 0.00 0.00 0.00 0.01 0.05 0.05 0.03 0.01 0.00 0.00 0.00 0.00 0.01 0.03 0.03 0.00 0.00 0.00 0.07 0.10
0.05 0.02 0.03 0.14 0.01 0.01 0.02 0.02 0.02 0.01 0.00 0.00 0.00 0.00 0.00 0.00 0.01 0.05 0.11 0.16 0.14 0.03 0.01 0.01 0.00 0.02 0.01 0.00 0.01 0.03 0.01 0.00 0.00
0.04 0.02 0.01 0.06 0.04 0.03 0.09 0.05 0.03 0.01 0.00 0.00 0.00 0.00 0.00 0.00 0.00 0.00 0.04 0.15 0.12 0.08 0.05 0.03 0.01 0.00 0.01 0.01 0.01 0.01 0.02 0.02 0.00
0.01 0.00 0.01 0.08 0.15 0.04 0.01 0.01 0.04 0.06 0.03 0.04 0.03 0.02 0.01 0.01 0.00 0.02 0.02 0.01 0.02 0.11 0.11 0.06 0.03 0.01 0.00 0.00 0.00 0.01 0.02 0.02 0.01
0.00 0.00 0.01 0.00 0.04 0.03 0.01 0.00 0.02 0.13 0.08 0.03 0.03 0.02 0.01 0.01 0.01 0.04 0.05 0.05 0.05 0.07 0.06 0.04 0.03 0.02 0.00 0.00 0.00 0.00 0.00 0.00 0.00
0.00 0.00 0.00 0.00 0.00 0.01 0.04 0.02 0.05 0.17 0.16 0.04 0.01 0.00 0.00 0.01 0.01 0.01 0.02 0.02 0.01 0.01 0.01 0.00 0.00 0.00 0.01 0.00 0.00 0.00 0.00 0.00 0.00
0.00 0.00 0.00 0.00 0.00 0.00 0.01 0.02 0.07 0.11 0.03 0.04 0.03 0.01 0.02 0.02 0.01 0.00 0.01 0.01 0.01 0.01 0.00 0.00 0.00 0.00 0.00 0.00 0.00 0.00 0.00 0.00 0.00
0.00 0.00 0.00 0.00 0.00 0.00 0.00 0.02 0.00 0.01 0.00 0.02 0.01 0.02 0.00 0.00 0.01 0.01 0.00 0.00 0.00 0.00 0.00 0.00 0.00 0.01 0.02 0.02 0.02 0.02 0.01 0.01 0.00
0.00 0.00 0.00 0.00 0.00 0.00 0.00 0.00 0.02 0.01 0.03 0.02 0.00 0.01 0.01 0.00 0.00 0.00 0.00 0.00 0.00 0.00 0.00 0.00 0.00 0.01 0.01 0.01 0.02 0.01 0.00 0.00 0.00
0.00 0.00 0.00 0.00 0.00 0.00 0.00 0.01 0.03 0.02 0.03 0.01 0.00 0.00 0.00 0.00 0.00 0.00 0.00 0.00 0.00 0.00 0.01 0.01 0.00 0.00 0.00 0.00 0.00 0.00 0.00 0.00 0.00
0.00 0.00 0.00 0.00 0.00 0.00 0.00 0.00 0.00 0.02 0.02 0.04 0.02 0.01 0.01 0.01 0.00 0.00 0.01 0.01 0.01 0.01 0.01 0.00 0.00 0.00 0.00 0.00 0.00 0.00 0.00 0.00 0.00
0.00 0.00 0.00 0.00 0.00 0.00 0.00 0.00 0.00 0.00 0.01 0.01 0.02 0.01 0.01 0.01 0.00 0.01 0.01 0.01 0.01 0.01 0.00 0.00 0.00 0.00 0.00 0.00 0.00 0.00 0.00 0.00 0.00
MSLP
1008.14 1008.36 1008.23 1008.97 1009.95 1010.95 1011.79 1012.81 1013.77 1014.42 1015.32 1016.08 1016.75 1017.24 1017.56 1017.89 1018.39 1018.89 1018.71 1018.73 1018.21 1018.68 1018.43 1018.60 1018.80 1019.51 1019.66 1019.87 1019.93 1020.08 1020.19 1020.10 1020.00
1007.16 1007.96 1007.98 1008.61 1009.58 1010.58 1011.37 1012.35 1013.38 1014.04 1014.82 1015.65 1016.23 1016.73 1017.24 1017.63 1017.95 1018.25 1017.92 1018.15 1018.79 1018.81 1018.70 1018.23 1018.73 1019.21 1019.46 1019.59 1019.68 1019.85 1019.93 1019.91 1020.03
1006.90 1008.06 1008.99 1008.49 1009.27 1010.17 1010.79 1011.84 1012.82 1013.72 1014.39 1015.08 1015.68 1016.24 1016.74 1017.11 1017.48 1017.87 1018.12 1018.49 1018.84 1018.58 1018.67 1018.84 1018.71 1019.28 1019.24 1019.34 1019.41 1019.59 1019.87 1019.68 1019.90
1007.67 1008.26 1009.02 1008.86 1009.36 1009.99 1010.47 1011.38 1012.21 1013.09 1013.93 1014.60 1015.20 1015.69 1016.07 1016.50 1016.84 1017.25 1017.78 1018.29 1018.36 1018.45 1018.74 1018.67 1018.76 1018.91 1019.12 1019.36 1019.33 1019.38 1019.72 1019.78 1019.65
1007.77 1008.91 1009.68 1009.79 1010.17 1010.38 1010.69 1011.21 1011.88 1012.66 1013.37 1014.01 1014.59 1015.05 1015.64 1016.03 1016.39 1016.75 1016.91 1017.36 1017.63 1017.97 1018.34 1018.33 1018.56 1018.76 1018.88 1019.01 1019.14 1019.36 1019.43 1019.58 1019.38
1008.51 1009.07 1010.35 1010.69 1011.16 1011.58 1011.64 1011.63 1011.90 1012.61 1013.19 1013.55 1013.99 1014.61 1015.09 1015.53 1015.87 1016.20 1016.44 1016.71 1017.12 1017.37 1017.69 1017.91 1018.06 1018.47 1018.72 1018.82 1018.92 1019.02 1019.12 1019.29 1019.28
1009.07 1009.11 1009.73 1011.01 1011.81 1012.31 1012.24 1012.61 1012.37 1012.70 1013.16 1013.46 1013.81 1014.15 1014.51 1014.88 1015.31 1015.61 1015.99 1016.38 1016.75 1016.97 1017.29 1017.48 1017.64 1017.84 1018.09 1018.40 1018.54 1018.75 1018.90 1018.94 1019.00
1010.29 1010.40 1010.85 1011.42 1012.16 1012.74 1013.20 1013.62 1013.41 1013.36 1013.44 1013.49 1013.66 1014.15 1014.38 1014.53 1014.95 1015.30 1015.64 1015.97 1016.37 1016.69 1016.98 1017.21 1017.46 1017.62 1017.82 1018.06 1018.17 1018.21 1018.46 1018.59 1018.78
1011.15 1011.30 1011.76 1012.80 1013.06 1013.69 1013.86 1014.24 1014.37 1013.92 1013.65 1014.11 1014.27 1014.13 1014.32 1014.44 1014.81 1015.11 1015.31 1015.65 1015.86 1016.23 1016.53 1016.84 1017.21 1017.40 1017.47 1017.67 1017.67 1017.94 1018.45 1018.69 1018.52
1013.56 1013.20 1012.62 1013.11 1013.45 1013.46 1014.08 1014.46 1014.72 1014.65 1014.29 1014.22 1014.44 1014.23 1014.50 1014.56 1014.80 1015.06 1015.16 1015.28 1015.78 1016.00 1016.21 1016.40 1016.63 1016.88 1017.22 1017.39 1017.65 1018.01 1018.37 1018.77 1018.60
1014.69 1014.45 1014.42 1014.21 1013.93 1013.96 1013.96 1014.01 1014.05 1014.41 1014.66 1014.60 1014.38 1014.31 1014.35 1014.69 1014.58 1014.89 1015.00 1015.12 1015.16 1015.83 1016.07 1016.30 1016.30 1016.55 1016.90 1017.25 1017.74 1018.32 1018.68 1018.90 1018.59
1014.88 1015.12 1015.14 1015.08 1014.73 1014.48 1014.42 1014.57 1014.42 1014.15 1014.03 1014.22 1014.19 1014.27 1014.26 1014.57 1014.13 1014.78 1015.09 1015.07 1015.01 1015.34 1015.83 1016.53 1016.59 1016.79 1017.26 1017.50 1017.73 1018.55 1019.01 1019.01 1018.45
1014.52 1014.87 1015.06 1015.03 1014.96 1014.87 1014.74 1014.73 1014.11 1013.51 1013.51 1013.65 1014.16 1014.32 1014.27 1014.31 1014.13 1015.16 1015.10 1015.44 1015.66 1016.05 1016.06 1016.50 1017.53 1017.68 1018.02 1018.58 1018.32 1018.88 1019.06 1019.21 1018.68
1014.42 1014.50 1014.62 1014.85 1014.85 1015.00 1014.94 1014.74 1014.31 1013.63 1013.39 1013.44 1013.64 1014.19 1013.45 1014.54 1015.02 1015.62 1015.36 1015.89 1016.13 1016.31 1016.72 1016.99 1017.33 1017.92 1018.58 1018.90 1019.07 1019.32 1019.20 1019.00 1019.10
1014.25 1014.80 1014.83 1014.97 1015.15 1015.37 1015.05 1014.78 1014.34 1013.97 1013.89 1013.80 1014.01 1013.93 1014.13 1014.69 1014.98 1015.49 1016.41 1016.63 1016.78 1017.29 1017.40 1017.65 1018.17 1018.62 1018.94 1019.20 1019.43 1019.52 1019.66 1019.59 1019.55
1014.45 1014.90 1015.18 1015.35 1015.45 1015.55 1015.65 1015.36 1014.70 1014.69 1014.82 1014.66 1014.93 1014.85 1014.88 1015.45 1016.01 1016.18 1016.31 1016.93 1017.68 1017.86 1018.31 1018.44 1018.87 1018.76 1018.97 1019.63 1019.81 1019.75 1019.84 1020.43 1020.28
1014.55 1014.94 1015.25 1015.55 1015.82 1015.99 1016.07 1015.96 1015.83 1015.82 1015.65 1015.56 1015.46 1015.71 1016.15 1016.62 1016.98 1017.37 1017.91 1018.25 1018.38 1018.93 1019.07 1019.48 1019.77 1019.90 1019.71 1019.79 1019.82 1019.91 1020.33 1020.90 1021.11
1014.70 1015.07 1015.35 1015.86 1016.20 1016.29 1016.68 1016.60 1016.52 1016.39 1016.31 1016.33 1016.42 1016.70 1017.11 1017.51 1017.97 1018.29 1018.89 1019.53 1019.79 1019.84 1020.35 1020.38 1020.19 1020.37 1020.57 1020.57 1020.26 1020.69 1021.01 1020.87 1021.57
1014.82 1015.12 1015.49 1015.78 1016.21 1016.51 1016.70 1016.77 1016.73 1016.69 1016.97 1016.82 1016.78 1017.19 1017.59 1018.02 1018.37 1018.81 1019.27 1019.76 1020.52 1020.85 1021.27 1021.02 1021.18 1021.24 1021.19 1021.62 1021.68 1021.78 1021.82 1022.06 1022.37
1015.18 1015.21 1015.38 1015.63 1015.94 1016.34 1016.83 1016.64 1016.62 1017.08 1017.19 1017.25 1017.28 1017.41 1017.84 1018.35 1018.73 1019.23 1019.36 1019.77 1020.41 1021.21 1022.13 1021.87 1021.79 1021.71 1021.76 1022.05 1022.28 1022.30 1022.19 1022.51 1022.86
Thickness
5778 5784 5795 5794 5791 5789 5788 5785 5782 5781 5775 5770 5770 5769 5769 5770 5767 5764 5768 5770 5777 5773 5775 5774 5774 5771 5770 5770 5772 5772 5771 5774 5775
5781 5782 5790 5794 5792 5789 5788 5786 5782 5781 5777 5772 5771 5771 5771 5770 5770 5768 5773 5774 5770 5772 5774 5779 5775 5773 5772 5772 5773 5773 5773 5775 5774
5780 5775 5774 5791 5790 5788 5791 5788 5785 5782 5780 5774 5773 5773 5773 5773 5773 5772 5771 5770 5767 5771 5773 5772 5776 5772 5773 5774 5774 5774 5772 5775 5774
5768 5771 5771 5783 5785 5787 5789 5788 5787 5784 5779 5776 5774 5774 5776 5775 5775 5775 5773 5769 5771 5771 5770 5772 5774 5774 5774 5773 5774 5774 5773 5773 5775
5772 5762 5762 5770 5773 5778 5779 5782 5783 5782 5780 5777 5775 5776 5775 5775 5776 5776 5776 5774 5775 5774 5771 5772 5772 5773 5774 5774 5774 5773 5773 5773 5776
5763 5758 5747 5755 5757 5759 5766 5771 5776 5776 5776 5776 5776 5775 5774 5775 5775 5775 5775 5776 5777 5777 5775 5774 5773 5772 5771 5772 5773 5773 5774 5773 5773
5762 5762 5759 5748 5746 5749 5758 5757 5765 5768 5769 5772 5773 5774 5774 5774 5774 5774 5774 5775 5775 5776 5775 5774 5775 5775 5774 5773 5774 5773 5773 5774 5774
5749 5749 5748 5746 5744 5743 5744 5743 5751 5757 5761 5765 5767 5766 5768 5770 5771 5772 5772 5773 5772 5772 5772 5772 5772 5772 5772 5772 5773 5775 5774 5774 5772
5745 5744 5738 5727 5725 5727 5731 5733 5736 5746 5754 5754 5757 5761 5763 5766 5768 5769 5770 5771 5772 5772 5771 5770 5769 5769 5770 5770 5774 5770 5768 5766 5769
5710 5717 5730 5724 5719 5720 5720 5724 5727 5730 5740 5747 5749 5756 5756 5760 5764 5765 5766 5768 5766 5766 5766 5768 5768 5768 5767 5766 5768 5764 5762 5759 5763
5699 5704 5704 5707 5714 5715 5716 5718 5724 5726 5729 5736 5742 5747 5753 5752 5758 5758 5761 5763 5765 5761 5760 5761 5762 5763 5762 5761 5759 5753 5752 5751 5757
5698 5696 5698 5699 5702 5704 5707 5707 5711 5720 5726 5731 5736 5738 5744 5747 5753 5752 5751 5754 5757 5758 5754 5749 5750 5752 5750 5750 5752 5743 5740 5742 5751
5697 5697 5697 5697 5701 5700 5702 5703 5710 5718 5725 5725 5724 5732 5736 5740 5744 5737 5740 5742 5743 5742 5743 5737 5730 5734 5734 5729 5737 5731 5731 5732 5739
5692 5694 5696 5697 5699 5697 5700 5702 5709 5713 5716 5716 5722 5723 5737 5732 5730 5726 5731 5730 5729 5729 5728 5726 5722 5719 5717 5717 5719 5720 5720 5723 5725
5686 5682 5686 5689 5690 5690 5696 5700 5705 5708 5709 5713 5717 5721 5724 5721 5722 5720 5714 5713 5716 5714 5713 5711 5705 5703 5702 5702 5702 5705 5707 5708 5709
5673 5674 5675 5678 5681 5683 5685 5689 5698 5700 5700 5706 5707 5709 5711 5709 5706 5706 5708 5703 5697 5697 5695 5695 5690 5691 5692 5688 5689 5691 5692 5689 5693
5664 5665 5667 5669 5670 5671 5673 5678 5682 5684 5689 5693 5697 5696 5695 5693 5692 5689 5684 5682 5683 5681 5682 5679 5676 5673 5677 5678 5679 5680 5680 5675 5672
5656 5656 5658 5657 5658 5661 5660 5663 5668 5672 5676 5678 5679 5679 5678 5676 5674 5672 5669 5664 5663 5662 5659 5662 5666 5664 5661 5665 5669 5666 5661 5667 5664
5651 5650 5649 5651 5650 5651 5653 5654 5658 5661 5661 5665 5666 5666 5664 5661 5660 5658 5658 5654 5648 5646 5646 5646 5648 5649 5652 5648 5647 5650 5650 5648 5646
5639 5645 5646 5646 5645 5644 5642 5648 5651 5650 5651 5651 5654 5655 5655 5651 5651 5647 5648 5646 5642 5638 5630 5633 5635 5640 5641 5638 5641 5640 5641 5638 5636